This demonstration page uses our WeatherBlox Daily Observations layout. Learn more.

Left ArrowRight Arrow

Hourly Observations for December 10, 2020

Temp ( °F °C ) Dew Point ( °F °C ) Humidity (%) Winds ( mph kmh ) Pressure ( in mb ) Visibility ( mi km ) Precip ( " mm )
12:56 am 00:56 Clear 43 6.1 26 -3.3 51 51 SSW 10 17 29.89 1012 10 16 0.00 0.00
1:56 am 01:56 Clear 40 4.4 25 -3.9 55 55 SSW 10 17 29.88 1012 10 16 0.00 0.00
2:56 am 02:56 Clear 39 3.9 25 -3.9 57 57 WSW 7 11 29.87 1012 10 16 0.00 0.00
3:56 am 03:56 Clear 38 3.3 24 -4.4 57 57 SW 6 9 29.87 1011 10 16 0.00 0.00
4:56 am 04:56 Clear 29 -1.7 22 -5.6 75 75 SSW 3 6 29.87 1011 10 16 0.00 0.00
5:56 am 05:56 Clear 33 0.6 20 -6.7 58 58 NW 8 13 29.89 1012 10 16 0.00 0.00
6:56 am 06:56 Clear 33 0.6 20 -6.7 58 58 NNW 12 19 29.91 1013 10 16 0.00 0.00
7:56 am 07:56 Sunny 36 2.2 23 -5 59 59 NNW 13 20 29.94 1014 10 16 0.00 0.00
8:56 am 08:56 Sunny 37 2.8 25 -3.9 62 62 N 14 22 29.97 1015 10 16 0.00 0.00
9:56 am 09:56 Sunny 41 5 29 -1.7 62 62 N 23 37 29.97 1015 10 16 0.00 0.00
10:56 am 10:56 Sunny 44 6.7 31 -0.6 60 60 N 25 41 29.98 1015 10 16 0.00 0.00
11:56 am 11:56 Sunny 43 6.1 30 -1.1 60 60 N 25 41 29.99 1016 10 16 0.00 0.00
12:56 pm 12:56 Sunny 44 6.7 30 -1.1 58 58 N 23 37 29.95 1014 10 16 0.00 0.00
1:56 pm 13:56 Sunny 44 6.7 30 -1.1 58 58 N 25 41 29.95 1014 10 16 0.00 0.00
2:56 pm 14:56 Sunny 45 7.2 30 -1.1 56 56 NNE 26 43 29.93 1014 10 16 0.00 0.00
3:56 pm 15:56 Sunny 43 6.1 30 -1.1 60 60 NNE 23 37 29.95 1014 10 16 0.00 0.00
4:56 pm 16:56 Sunny 40 4.4 31 -0.6 70 70 N 21 33 30.00 1016 10 16 0.00 0.00
5:56 pm 17:56 Mostly Cloudy 38 3.3 31 -0.6 76 76 N 14 22 30.02 1017 10 16 0.00 0.00
6:56 pm 18:56 Cloudy 38 3.3 31 -0.6 76 76 NNE 25 41 30.01 1016 10 16 0.00 0.00
7:25 pm 19:25 Partly Cloudy 37 3 30 -1 75 75 NNE 18 30 30.04 1017 10 16 0.00 0.00
7:56 pm 19:56 Clear 37 2.8 30 -1.1 76 76 NNE 21 33 30.00 1016 10 16 0.00 0.00
8:56 pm 20:56 Clear 36 2.2 30 -1.1 79 79 NNE 20 31 29.99 1016 10 16 0.00 0.00
9:56 pm 21:56 Clear 36 2.2 29 -1.7 76 76 N 17 28 30.01 1016 10 16 0.00 0.00
10:56 pm 22:56 Clear 35 1.7 28 -2.2 76 76 NNE 17 28 30.00 1016 10 16 0.00 0.00
11:56 pm 23:56 Cloudy 34 1.1 28 -2.2 79 79 NNE 14 22 30.01 1016 10 16 0.00 0.00

Powered by AerisWeather